Time,TemperatureF,DewpointF,PressureIn,WindDirection,WindDirectionDegrees,WindSpeedMPH,WindSpeedGustMPH,Humidity,HourlyPrecipIn,Conditions,Clouds,dailyrainin,SoftwareType,DateUTC
2013-01-12 00:00:00,43.5,44.0,30.10,ENE,67,4.7,7.7,99,0.18,,,0.00,Rainwise IP-100,2013-01-12 05:00:00,
2013-01-12 00:06:00,43.5,44.0,30.10,NE,45,2.8,6.8,99,0.18,,,0.01,Rainwise IP-100,2013-01-12 05:06:00,
2013-01-12 00:11:00,43.7,44.0,30.10,NNE,22,4.7,6.3,99,0.06,,,0.01,Rainwise IP-100,2013-01-12 05:11:00,
2013-01-12 00:16:00,43.9,44.0,30.10,NNE,22,4.2,5.1,99,0.00,,,0.01,Rainwise IP-100,2013-01-12 05:16:00,
2013-01-12 00:21:00,44.0,44.0,30.10,NNE,22,2.8,4.7,99,0.00,,,0.01,Rainwise IP-100,2013-01-12 05:21:00,
2013-01-12 00:26:00,43.9,44.0,30.10,NNW,337,4.0,4.9,99,0.00,,,0.01,Rainwise IP-100,2013-01-12 05:26:00,
2013-01-12 00:31:00,43.8,44.0,30.10,NNE,22,2.6,5.1,99,0.00,,,0.01,Rainwise IP-100,2013-01-12 05:31:00,
2013-01-12 00:36:00,43.9,44.0,30.10,NNW,337,2.6,5.1,99,0.00,,,0.01,Rainwise IP-100,2013-01-12 05:36:00,
2013-01-12 00:42:00,44.1,44.0,30.10,North,360,2.3,5.8,99,0.00,,,0.01,Rainwise IP-100,2013-01-12 05:42:00,
2013-01-12 00:47:00,44.1,44.0,30.10,North,360,4.9,4.9,99,0.00,,,0.01,Rainwise IP-100,2013-01-12 05:47:00,
2013-01-12 00:52:00,44.1,44.0,30.10,North,360,4.2,6.1,99,0.00,,,0.01,Rainwise IP-100,2013-01-12 05:52:00,
2013-01-12 00:57:00,44.1,44.0,30.09,North,360,4.0,6.1,99,0.00,,,0.01,Rainwise IP-100,2013-01-12 05:57:00,
2013-01-12 01:02:00,44.2,44.0,30.10,NNE,22,4.2,6.3,100,0.00,,,0.01,Rainwise IP-100,2013-01-12 06:02:00,
2013-01-12 01:07:00,44.3,44.0,30.10,NNE,22,2.6,7.9,100,0.06,,,0.02,Rainwise IP-100,2013-01-12 06:07:00,
2013-01-12 01:12:00,44.4,44.0,30.10,NE,45,2.6,6.5,100,0.06,,,0.02,Rainwise IP-100,2013-01-12 06:12:00,
2013-01-12 01:17:00,44.4,44.0,30.10,NNE,22,3.7,8.4,100,0.00,,,0.02,Rainwise IP-100,2013-01-12 06:17:00,
2013-01-12 01:23:00,44.5,45.0,30.10,NNE,22,5.1,7.0,100,0.00,,,0.02,Rainwise IP-100,2013-01-12 06:23:00,
2013-01-12 01:28:00,44.6,45.0,30.10,NNW,337,2.8,8.2,100,0.00,,,0.02,Rainwise IP-100,2013-01-12 06:28:00,
2013-01-12 01:33:00,44.6,45.0,30.10,NNE,22,5.8,8.4,100,0.00,,,0.02,Rainwise IP-100,2013-01-12 06:33:00,
2013-01-12 01:38:00,44.6,45.0,30.10,North,360,6.1,7.5,100,0.00,,,0.02,Rainwise IP-100,2013-01-12 06:38:00,
2013-01-12 01:43:00,44.7,45.0,30.10,North,360,1.6,8.2,100,0.00,,,0.02,Rainwise IP-100,2013-01-12 06:43:00,
2013-01-12 01:44:00,44.7,45.0,30.10,North,360,2.6,8.2,100,0.00,,,0.02,Rainwise IP-100,2013-01-12 06:44:00,
2013-01-12 01:49:00,44.8,45.0,30.10,NE,45,4.4,9.8,100,0.00,,,0.02,Rainwise IP-100,2013-01-12 06:49:00,
2013-01-12 01:54:00,44.8,45.0,30.10,NNE,22,2.8,9.3,100,0.06,,,0.03,Rainwise IP-100,2013-01-12 06:54:00,
2013-01-12 01:59:00,44.9,45.0,30.10,NE,45,5.4,10.3,100,0.06,,,0.03,Rainwise IP-100,2013-01-12 06:59:00,
2013-01-12 02:04:00,45.0,45.0,30.10,NE,45,4.7,12.6,100,0.00,,,0.03,Rainwise IP-100,2013-01-12 07:04:00,
2013-01-12 02:09:00,45.1,45.0,30.10,NNE,22,5.8,11.9,100,0.00,,,0.03,Rainwise IP-100,2013-01-12 07:09:00,
2013-01-12 02:14:00,45.1,45.0,30.10,North,360,5.4,8.6,100,0.00,,,0.03,Rainwise IP-100,2013-01-12 07:14:00,
2013-01-12 02:19:00,45.1,45.0,30.10,NNE,22,3.5,9.3,100,0.00,,,0.03,Rainwise IP-100,2013-01-12 07:19:00,
2013-01-12 02:24:00,45.1,45.0,30.10,NE,45,4.9,7.7,100,0.00,,,0.03,Rainwise IP-100,2013-01-12 07:24:00,
2013-01-12 02:30:00,45.1,45.0,30.10,NNE,22,4.2,11.7,100,0.00,,,0.03,Rainwise IP-100,2013-01-12 07:30:00,
2013-01-12 02:35:00,45.1,45.0,30.10,NNE,22,1.9,9.1,100,0.00,,,0.03,Rainwise IP-100,2013-01-12 07:35:00,
2013-01-12 02:40:00,45.1,45.0,30.10,NE,45,2.3,10.7,100,0.00,,,0.03,Rainwise IP-100,2013-01-12 07:40:00,
2013-01-12 02:45:00,45.1,45.0,30.10,NNE,22,3.5,9.6,100,0.00,,,0.03,Rainwise IP-100,2013-01-12 07:45:00,
2013-01-12 02:50:00,45.1,45.0,30.10,NNE,22,6.1,8.9,100,0.00,,,0.03,Rainwise IP-100,2013-01-12 07:50:00,
2013-01-12 02:55:00,45.0,45.0,30.10,NNE,22,5.4,8.9,100,0.06,,,0.04,Rainwise IP-100,2013-01-12 07:55:00,
2013-01-12 03:00:00,44.9,45.0,30.11,NNW,337,4.4,9.8,100,0.06,,,0.04,Rainwise IP-100,2013-01-12 08:00:00,
2013-01-12 03:06:00,44.9,45.0,30.11,NNE,22,4.4,9.1,100,0.00,,,0.04,Rainwise IP-100,2013-01-12 08:06:00,
2013-01-12 03:11:00,44.8,45.0,30.12,North,360,4.4,7.0,100,0.00,,,0.04,Rainwise IP-100,2013-01-12 08:11:00,
2013-01-12 03:16:00,44.8,45.0,30.11,NNW,337,6.3,8.4,100,0.00,,,0.04,Rainwise IP-100,2013-01-12 08:16:00,
2013-01-12 03:21:00,44.8,45.0,30.11,North,360,4.2,7.5,100,0.00,,,0.04,Rainwise IP-100,2013-01-12 08:21:00,
2013-01-12 03:26:00,44.8,45.0,30.10,NNE,22,3.5,7.2,100,0.00,,,0.04,Rainwise IP-100,2013-01-12 08:26:00,
2013-01-12 03:31:00,44.8,45.0,30.10,NE,45,2.6,6.1,100,0.06,,,0.05,Rainwise IP-100,2013-01-12 08:31:00,
2013-01-12 03:36:00,44.7,45.0,30.10,NNW,337,3.0,7.7,100,0.06,,,0.05,Rainwise IP-100,2013-01-12 08:36:00,
2013-01-12 03:41:00,44.7,45.0,30.10,North,360,5.6,7.9,100,0.00,,,0.05,Rainwise IP-100,2013-01-12 08:41:00,
2013-01-12 03:46:00,44.7,45.0,30.10,NNE,22,4.0,7.9,100,0.00,,,0.05,Rainwise IP-100,2013-01-12 08:46:00,
2013-01-12 03:52:00,44.7,45.0,30.10,NNE,22,2.3,8.2,100,0.00,,,0.05,Rainwise IP-100,2013-01-12 08:52:00,
2013-01-12 03:54:00,44.7,45.0,30.10,NNE,22,4.2,8.2,100,0.00,,,0.05,Rainwise IP-100,2013-01-12 08:54:00,
2013-01-12 03:55:00,44.7,45.0,30.10,NNE,22,4.2,6.1,100,0.00,,,0.05,Rainwise IP-100,2013-01-12 08:55:00,
2013-01-12 03:58:00,44.7,45.0,30.09,North,360,3.7,7.9,100,0.00,,,0.05,Rainwise IP-100,2013-01-12 08:58:00,
2013-01-12 03:59:00,44.7,45.0,30.09,North,360,1.6,7.9,100,0.00,,,0.05,Rainwise IP-100,2013-01-12 08:59:00,
2013-01-12 04:01:00,44.7,45.0,30.10,North,360,4.9,7.9,100,0.00,,,0.05,Rainwise IP-100,2013-01-12 09:01:00,
2013-01-12 04:02:00,44.7,45.0,30.10,North,360,3.5,7.9,100,0.00,,,0.05,Rainwise IP-100,2013-01-12 09:02:00,
2013-01-12 04:05:00,44.6,45.0,30.09,NE,45,7.0,7.0,100,0.00,,,0.05,Rainwise IP-100,2013-01-12 09:05:00,
2013-01-12 04:06:00,44.6,45.0,30.09,NNE,22,3.7,7.0,100,0.00,,,0.05,Rainwise IP-100,2013-01-12 09:06:00,
2013-01-12 04:07:00,44.6,45.0,30.09,NE,45,4.7,7.0,100,0.00,,,0.05,Rainwise IP-100,2013-01-12 09:07:00,
2013-01-12 04:10:00,44.6,45.0,30.09,NNW,337,4.0,9.3,100,0.00,,,0.05,Rainwise IP-100,2013-01-12 09:10:00,
2013-01-12 04:11:00,44.6,45.0,30.09,NNE,22,6.3,9.3,100,0.00,,,0.05,Rainwise IP-100,2013-01-12 09:11:00,
2013-01-12 04:16:00,44.6,45.0,30.09,NNE,22,4.9,7.7,100,0.00,,,0.05,Rainwise IP-100,2013-01-12 09:16:00,
2013-01-12 04:21:00,44.6,45.0,30.09,North,360,3.5,8.6,100,0.00,,,0.05,Rainwise IP-100,2013-01-12 09:21:00,
2013-01-12 04:26:00,44.6,45.0,30.09,NE,45,4.4,8.6,100,0.00,,,0.05,Rainwise IP-100,2013-01-12 09:26:00,
2013-01-12 04:31:00,44.6,45.0,30.08,NNE,22,6.8,10.5,100,0.00,,,0.05,Rainwise IP-100,2013-01-12 09:31:00,
2013-01-12 04:36:00,44.6,45.0,30.09,NNE,22,4.4,9.3,100,0.00,,,0.05,Rainwise IP-100,2013-01-12 09:36:00,
2013-01-12 04:42:00,44.5,45.0,30.08,North,360,5.8,6.5,100,0.00,,,0.05,Rainwise IP-100,2013-01-12 09:42:00,
2013-01-12 04:47:00,44.4,44.0,30.09,NNE,22,3.7,8.4,100,0.00,,,0.05,Rainwise IP-100,2013-01-12 09:47:00,
2013-01-12 04:52:00,44.4,44.0,30.09,North,360,5.8,7.2,100,0.00,,,0.05,Rainwise IP-100,2013-01-12 09:52:00,
2013-01-12 04:57:00,44.4,44.0,30.09,North,360,5.4,5.8,100,0.00,,,0.05,Rainwise IP-100,2013-01-12 09:57:00,
2013-01-12 05:02:00,44.3,44.0,30.09,NNW,337,4.2,6.5,100,0.00,,,0.05,Rainwise IP-100,2013-01-12 10:02:00,
2013-01-12 05:07:00,44.3,44.0,30.09,NNE,22,4.0,8.6,100,0.00,,,0.05,Rainwise IP-100,2013-01-12 10:07:00,
2013-01-12 05:12:00,44.2,44.0,30.09,NNW,337,5.6,8.2,100,0.00,,,0.05,Rainwise IP-100,2013-01-12 10:12:00,
2013-01-12 05:18:00,44.1,44.0,30.09,North,360,4.2,9.6,100,0.00,,,0.05,Rainwise IP-100,2013-01-12 10:18:00,
2013-01-12 05:23:00,44.1,44.0,30.09,North,360,5.4,9.1,100,0.00,,,0.05,Rainwise IP-100,2013-01-12 10:23:00,
2013-01-12 05:28:00,44.0,44.0,30.10,NNW,337,6.1,10.0,100,0.00,,,0.05,Rainwise IP-100,2013-01-12 10:28:00,
2013-01-12 05:33:00,44.0,44.0,30.10,NNW,337,2.6,10.0,100,0.00,,,0.05,Rainwise IP-100,2013-01-12 10:33:00,
2013-01-12 05:38:00,44.0,44.0,30.10,NNE,22,3.7,6.8,100,0.00,,,0.05,Rainwise IP-100,2013-01-12 10:38:00,
2013-01-12 05:43:00,44.0,44.0,30.10,NE,45,4.7,7.5,100,0.00,,,0.05,Rainwise IP-100,2013-01-12 10:43:00,
2013-01-12 05:48:00,44.0,44.0,30.11,NNE,22,5.6,6.8,100,0.00,,,0.05,Rainwise IP-100,2013-01-12 10:48:00,
2013-01-12 05:53:00,43.9,44.0,30.11,North,360,4.9,7.9,100,0.00,,,0.05,Rainwise IP-100,2013-01-12 10:53:00,
2013-01-12 05:59:00,43.8,44.0,30.11,North,360,3.3,7.0,100,0.00,,,0.05,Rainwise IP-100,2013-01-12 10:59:00,
2013-01-12 06:04:00,43.8,44.0,30.11,NNE,22,5.4,8.6,100,0.00,,,0.05,Rainwise IP-100,2013-01-12 11:04:00,
2013-01-12 06:09:00,43.7,44.0,30.12,NNE,22,4.7,6.3,100,0.00,,,0.05,Rainwise IP-100,2013-01-12 11:09:00,
2013-01-12 06:14:00,43.7,44.0,30.13,North,360,4.4,5.4,100,0.00,,,0.05,Rainwise IP-100,2013-01-12 11:14:00,
2013-01-12 06:19:00,43.7,44.0,30.12,North,360,4.2,6.5,100,0.00,,,0.05,Rainwise IP-100,2013-01-12 11:19:00,
2013-01-12 06:24:00,43.7,44.0,30.12,North,360,3.3,6.3,100,0.00,,,0.05,Rainwise IP-100,2013-01-12 11:24:00,
2013-01-12 06:29:00,43.7,44.0,30.13,North,360,0.0,4.2,100,0.00,,,0.05,Rainwise IP-100,2013-01-12 11:29:00,
2013-01-12 06:35:00,43.7,44.0,30.13,NNW,337,3.5,6.1,100,0.00,,,0.05,Rainwise IP-100,2013-01-12 11:35:00,
2013-01-12 06:40:00,43.6,44.0,30.14,NNW,337,3.7,7.5,100,0.00,,,0.05,Rainwise IP-100,2013-01-12 11:40:00,
2013-01-12 06:45:00,43.6,44.0,30.14,NNW,337,5.8,7.0,100,0.00,,,0.05,Rainwise IP-100,2013-01-12 11:45:00,
2013-01-12 06:50:00,43.7,44.0,30.13,NNW,337,1.6,7.0,99,0.00,,,0.05,Rainwise IP-100,2013-01-12 11:50:00,
2013-01-12 06:55:00,43.7,44.0,30.15,NNW,337,3.5,7.5,99,0.00,,,0.05,Rainwise IP-100,2013-01-12 11:55:00,
2013-01-12 07:00:00,43.7,44.0,30.14,North,360,2.3,6.5,99,0.00,,,0.05,Rainwise IP-100,2013-01-12 12:00:00,
2013-01-12 07:05:00,43.7,44.0,30.14,NNE,22,4.2,4.7,99,0.00,,,0.05,Rainwise IP-100,2013-01-12 12:05:00,
2013-01-12 07:10:00,43.7,44.0,30.13,NNE,22,3.0,5.4,99,0.00,,,0.05,Rainwise IP-100,2013-01-12 12:10:00,
2013-01-12 07:16:00,43.7,44.0,30.13,NE,45,1.9,6.5,99,0.00,,,0.05,Rainwise IP-100,2013-01-12 12:16:00,
2013-01-12 07:21:00,43.6,44.0,30.13,North,360,1.4,8.2,99,0.00,,,0.05,Rainwise IP-100,2013-01-12 12:21:00,
2013-01-12 07:26:00,43.6,44.0,30.14,NE,45,3.0,6.8,99,0.00,,,0.05,Rainwise IP-100,2013-01-12 12:26:00,
2013-01-12 07:31:00,43.6,44.0,30.13,North,360,3.3,7.9,99,0.00,,,0.05,Rainwise IP-100,2013-01-12 12:31:00,
2013-01-12 07:36:00,43.6,44.0,30.14,North,360,4.0,8.2,99,0.00,,,0.05,Rainwise IP-100,2013-01-12 12:36:00,
2013-01-12 07:41:00,43.6,44.0,30.14,NNE,22,4.7,5.4,99,0.00,,,0.05,Rainwise IP-100,2013-01-12 12:41:00,
2013-01-12 07:46:00,43.6,44.0,30.14,NE,45,4.2,11.0,99,0.00,,,0.05,Rainwise IP-100,2013-01-12 12:46:00,
2013-01-12 07:52:00,43.6,44.0,30.14,North,360,2.6,7.0,99,0.00,,,0.05,Rainwise IP-100,2013-01-12 12:52:00,
2013-01-12 07:57:00,43.6,44.0,30.14,NNW,337,4.2,6.3,99,0.00,,,0.05,Rainwise IP-100,2013-01-12 12:57:00,
2013-01-12 08:02:00,43.6,44.0,30.15,North,360,3.7,6.3,99,0.00,,,0.05,Rainwise IP-100,2013-01-12 13:02:00,
2013-01-12 08:07:00,43.6,44.0,30.16,NNW,337,4.9,5.6,99,0.00,,,0.05,Rainwise IP-100,2013-01-12 13:07:00,
2013-01-12 08:12:00,43.6,44.0,30.16,NNW,337,4.9,8.4,99,0.00,,,0.05,Rainwise IP-100,2013-01-12 13:12:00,
2013-01-12 08:17:00,43.6,44.0,30.16,North,360,4.2,6.5,99,0.00,,,0.05,Rainwise IP-100,2013-01-12 13:17:00,
2013-01-12 08:22:00,43.7,44.0,30.16,NNW,337,4.9,7.0,99,0.00,,,0.05,Rainwise IP-100,2013-01-12 13:22:00,
2013-01-12 08:27:00,43.7,44.0,30.16,North,360,2.8,7.2,99,0.00,,,0.05,Rainwise IP-100,2013-01-12 13:27:00,
2013-01-12 08:33:00,43.9,44.0,30.16,NNW,337,5.4,5.6,99,0.00,,,0.05,Rainwise IP-100,2013-01-12 13:33:00,
2013-01-12 08:38:00,44.0,44.0,30.17,NNW,337,3.3,5.4,99,0.00,,,0.05,Rainwise IP-100,2013-01-12 13:38:00,
2013-01-12 08:43:00,44.1,44.0,30.16,North,360,3.7,5.8,99,0.00,,,0.05,Rainwise IP-100,2013-01-12 13:43:00,
2013-01-12 08:48:00,44.3,43.0,30.17,North,360,3.5,5.4,98,0.00,,,0.05,Rainwise IP-100,2013-01-12 13:48:00,
2013-01-12 08:53:00,44.3,43.0,30.16,North,360,3.5,6.3,98,0.00,,,0.05,Rainwise IP-100,2013-01-12 13:53:00,
2013-01-12 08:58:00,44.2,43.0,30.15,North,360,5.6,8.2,98,0.00,,,0.05,Rainwise IP-100,2013-01-12 13:58:00,
2013-01-12 09:03:00,44.2,43.0,30.16,North,360,2.3,8.2,98,0.00,,,0.05,Rainwise IP-100,2013-01-12 14:03:00,
2013-01-12 09:09:00,44.2,43.0,30.16,NNW,337,4.9,7.9,98,0.00,,,0.05,Rainwise IP-100,2013-01-12 14:09:00,
2013-01-12 09:14:00,44.2,43.0,30.16,NE,45,2.8,7.2,98,0.00,,,0.05,Rainwise IP-100,2013-01-12 14:14:00,
2013-01-12 09:19:00,44.2,43.0,30.17,NNE,22,1.2,6.1,98,0.00,,,0.05,Rainwise IP-100,2013-01-12 14:19:00,
2013-01-12 09:24:00,44.3,43.0,30.17,NNE,22,2.3,6.3,98,0.00,,,0.05,Rainwise IP-100,2013-01-12 14:24:00,
2013-01-12 09:29:00,44.4,43.0,30.16,NNE,22,7.0,7.2,98,0.00,,,0.05,Rainwise IP-100,2013-01-12 14:29:00,
2013-01-12 09:34:00,44.4,43.0,30.16,NE,45,4.9,9.1,97,0.00,,,0.05,Rainwise IP-100,2013-01-12 14:34:00,
2013-01-12 09:39:00,44.4,43.0,30.16,North,360,4.2,6.3,97,0.00,,,0.05,Rainwise IP-100,2013-01-12 14:39:00,
2013-01-12 09:44:00,44.5,44.0,30.17,NNE,22,2.1,8.6,97,0.00,,,0.05,Rainwise IP-100,2013-01-12 14:44:00,
2013-01-12 09:50:00,44.6,44.0,30.16,NE,45,5.4,7.9,97,0.00,,,0.05,Rainwise IP-100,2013-01-12 14:50:00,
2013-01-12 09:55:00,44.6,44.0,30.16,ENE,67,5.8,7.5,97,0.00,,,0.05,Rainwise IP-100,2013-01-12 14:55:00,
2013-01-12 10:00:00,44.6,44.0,30.17,NE,45,7.0,7.0,97,0.00,,,0.05,Rainwise IP-100,2013-01-12 15:00:00,
2013-01-12 10:05:00,44.6,44.0,30.16,ENE,67,7.5,10.3,96,0.06,,,0.06,Rainwise IP-100,2013-01-12 15:05:00,
2013-01-12 10:10:00,44.7,44.0,30.16,NNE,22,7.0,14.5,96,0.06,,,0.06,Rainwise IP-100,2013-01-12 15:10:00,
2013-01-12 10:15:00,44.7,44.0,30.16,NNE,22,5.6,14.5,96,0.00,,,0.06,Rainwise IP-100,2013-01-12 15:15:00,
2013-01-12 10:20:00,44.8,44.0,30.16,ENE,67,4.9,7.2,96,0.00,,,0.06,Rainwise IP-100,2013-01-12 15:20:00,
2013-01-12 10:26:00,45.0,44.0,30.16,ENE,67,6.1,10.0,96,0.00,,,0.06,Rainwise IP-100,2013-01-12 15:26:00,
2013-01-12 10:31:00,45.0,44.0,30.16,North,360,2.6,9.3,96,0.00,,,0.06,Rainwise IP-100,2013-01-12 15:31:00,
2013-01-12 10:36:00,45.0,44.0,30.16,ENE,67,7.7,8.9,95,0.00,,,0.06,Rainwise IP-100,2013-01-12 15:36:00,
2013-01-12 10:41:00,45.1,44.0,30.15,ENE,67,6.3,8.6,95,0.00,,,0.06,Rainwise IP-100,2013-01-12 15:41:00,
2013-01-12 10:46:00,45.1,44.0,30.15,North,360,5.4,10.5,95,0.00,,,0.06,Rainwise IP-100,2013-01-12 15:46:00,
2013-01-12 10:51:00,45.2,44.0,30.16,ENE,67,2.3,6.5,95,0.00,,,0.06,Rainwise IP-100,2013-01-12 15:51:00,
2013-01-12 10:56:00,45.3,44.0,30.15,East,90,4.4,8.6,95,0.00,,,0.06,Rainwise IP-100,2013-01-12 15:56:00,
2013-01-12 11:01:00,45.3,44.0,30.16,ENE,67,3.0,5.1,95,0.00,,,0.06,Rainwise IP-100,2013-01-12 16:01:00,
2013-01-12 11:07:00,45.4,43.0,30.16,ENE,67,5.6,8.4,94,0.00,,,0.06,Rainwise IP-100,2013-01-12 16:07:00,
2013-01-12 11:12:00,45.2,43.0,30.15,ENE,67,2.3,11.7,94,0.00,,,0.06,Rainwise IP-100,2013-01-12 16:12:00,
2013-01-12 11:17:00,45.1,43.0,30.15,NE,45,6.3,10.7,94,0.00,,,0.06,Rainwise IP-100,2013-01-12 16:17:00,
2013-01-12 11:22:00,45.2,44.0,30.15,East,90,6.8,7.7,95,0.00,,,0.06,Rainwise IP-100,2013-01-12 16:22:00,
2013-01-12 11:27:00,45.2,43.0,30.14,East,90,5.4,9.3,94,0.00,,,0.06,Rainwise IP-100,2013-01-12 16:27:00,
2013-01-12 11:32:00,45.1,43.0,30.14,NE,45,7.2,7.2,94,0.00,,,0.06,Rainwise IP-100,2013-01-12 16:32:00,
2013-01-12 11:37:00,45.1,43.0,30.15,East,90,4.7,7.9,94,0.00,,,0.06,Rainwise IP-100,2013-01-12 16:37:00,
2013-01-12 11:43:00,45.1,43.0,30.15,ESE,112,4.4,7.2,94,0.00,,,0.06,Rainwise IP-100,2013-01-12 16:43:00,
2013-01-12 11:48:00,44.8,43.0,30.15,SE,135,4.7,5.8,94,0.00,,,0.06,Rainwise IP-100,2013-01-12 16:48:00,
2013-01-12 11:53:00,44.5,43.0,30.15,ESE,112,4.9,5.6,94,0.00,,,0.06,Rainwise IP-100,2013-01-12 16:53:00,
2013-01-12 11:58:00,44.4,43.0,30.15,ESE,112,3.7,5.4,95,0.00,,,0.06,Rainwise IP-100,2013-01-12 16:58:00,
2013-01-12 12:03:00,44.4,43.0,30.15,ESE,112,5.4,6.1,95,0.00,,,0.06,Rainwise IP-100,2013-01-12 17:03:00,
2013-01-12 12:08:00,44.4,43.0,30.15,ESE,112,4.0,7.0,95,0.00,,,0.06,Rainwise IP-100,2013-01-12 17:08:00,
2013-01-12 12:13:00,44.4,43.0,30.14,ESE,112,3.5,5.6,95,0.00,,,0.06,Rainwise IP-100,2013-01-12 17:13:00,
2013-01-12 12:18:00,44.3,43.0,30.15,ESE,112,4.7,6.3,95,0.00,,,0.06,Rainwise IP-100,2013-01-12 17:18:00,
2013-01-12 12:24:00,44.3,43.0,30.15,ESE,112,5.6,6.5,95,0.00,,,0.06,Rainwise IP-100,2013-01-12 17:24:00,
2013-01-12 12:29:00,44.1,43.0,30.14,ESE,112,6.1,7.5,95,0.00,,,0.06,Rainwise IP-100,2013-01-12 17:29:00,
2013-01-12 12:34:00,43.8,43.0,30.14,ESE,112,5.4,7.9,95,0.00,,,0.06,Rainwise IP-100,2013-01-12 17:34:00,
2013-01-12 12:39:00,43.6,43.0,30.14,ESE,112,6.1,8.4,96,0.00,,,0.06,Rainwise IP-100,2013-01-12 17:39:00,
2013-01-12 12:44:00,43.4,42.0,30.14,East,90,6.3,8.6,96,0.00,,,0.06,Rainwise IP-100,2013-01-12 17:44:00,
2013-01-12 12:49:00,43.3,42.0,30.14,East,90,7.7,8.4,97,0.00,,,0.06,Rainwise IP-100,2013-01-12 17:49:00,
2013-01-12 12:54:00,43.2,42.0,30.14,ESE,112,4.0,8.4,97,0.00,,,0.06,Rainwise IP-100,2013-01-12 17:54:00,
2013-01-12 13:00:00,43.1,42.0,30.15,ESE,112,4.7,5.8,97,0.00,,,0.06,Rainwise IP-100,2013-01-12 18:00:00,
2013-01-12 13:05:00,42.9,42.0,30.15,ESE,112,4.2,5.8,98,0.00,,,0.06,Rainwise IP-100,2013-01-12 18:05:00,
2013-01-12 13:10:00,42.9,42.0,30.15,ESE,112,5.1,5.6,98,0.00,,,0.06,Rainwise IP-100,2013-01-12 18:10:00,
2013-01-12 13:15:00,42.9,42.0,30.15,ESE,112,5.1,6.8,98,0.00,,,0.06,Rainwise IP-100,2013-01-12 18:15:00,
2013-01-12 13:20:00,42.8,42.0,30.15,ESE,112,4.0,7.0,98,0.00,,,0.06,Rainwise IP-100,2013-01-12 18:20:00,
2013-01-12 13:25:00,42.8,42.0,30.15,East,90,4.4,6.3,98,0.00,,,0.06,Rainwise IP-100,2013-01-12 18:25:00,
2013-01-12 13:30:00,42.8,43.0,30.16,East,90,5.4,5.8,99,0.00,,,0.06,Rainwise IP-100,2013-01-12 18:30:00,
2013-01-12 13:35:00,42.8,43.0,30.16,ESE,112,3.3,6.8,99,0.00,,,0.06,Rainwise IP-100,2013-01-12 18:35:00,
2013-01-12 13:41:00,42.8,43.0,30.16,ESE,112,4.4,6.5,99,0.00,,,0.06,Rainwise IP-100,2013-01-12 18:41:00,
2013-01-12 13:46:00,42.8,43.0,30.16,East,90,4.7,5.8,99,0.00,,,0.06,Rainwise IP-100,2013-01-12 18:46:00,
2013-01-12 13:51:00,42.7,43.0,30.16,ESE,112,5.6,6.3,99,0.00,,,0.06,Rainwise IP-100,2013-01-12 18:51:00,
2013-01-12 13:56:00,42.7,43.0,30.16,SSE,157,4.0,6.1,99,0.00,,,0.06,Rainwise IP-100,2013-01-12 18:56:00,
2013-01-12 14:01:00,42.6,43.0,30.17,SSE,157,3.7,4.4,99,0.00,,,0.06,Rainwise IP-100,2013-01-12 19:01:00,
2013-01-12 14:06:00,42.5,43.0,30.16,SSE,157,4.4,4.4,99,0.00,,,0.06,Rainwise IP-100,2013-01-12 19:06:00,
2013-01-12 14:11:00,42.3,42.0,30.16,ESE,112,4.9,5.8,99,0.00,,,0.06,Rainwise IP-100,2013-01-12 19:11:00,
2013-01-12 14:16:00,42.3,42.0,30.16,ESE,112,5.4,6.8,99,0.00,,,0.06,Rainwise IP-100,2013-01-12 19:16:00,
2013-01-12 14:21:00,42.2,42.0,30.16,ESE,112,4.7,6.5,99,0.00,,,0.06,Rainwise IP-100,2013-01-12 19:21:00,
2013-01-12 14:27:00,42.3,42.0,30.16,East,90,4.7,6.3,99,0.00,,,0.06,Rainwise IP-100,2013-01-12 19:27:00,
2013-01-12 14:32:00,42.5,43.0,30.16,ESE,112,4.4,6.3,100,0.00,,,0.06,Rainwise IP-100,2013-01-12 19:32:00,
2013-01-12 14:37:00,42.6,43.0,30.16,ESE,112,3.3,7.2,100,0.00,,,0.06,Rainwise IP-100,2013-01-12 19:37:00,
2013-01-12 14:42:00,42.6,43.0,30.16,East,90,4.9,6.3,100,0.00,,,0.06,Rainwise IP-100,2013-01-12 19:42:00,
2013-01-12 14:47:00,42.7,43.0,30.15,ENE,67,4.2,8.2,100,0.00,,,0.06,Rainwise IP-100,2013-01-12 19:47:00,
2013-01-12 14:52:00,42.7,43.0,30.16,ENE,67,4.7,8.6,100,0.00,,,0.06,Rainwise IP-100,2013-01-12 19:52:00,
2013-01-12 14:57:00,42.8,43.0,30.16,ESE,112,3.7,6.5,100,0.00,,,0.06,Rainwise IP-100,2013-01-12 19:57:00,
2013-01-12 15:03:00,42.8,43.0,30.15,ESE,112,4.2,7.7,100,0.00,,,0.06,Rainwise IP-100,2013-01-12 20:03:00,
2013-01-12 15:08:00,42.9,43.0,30.15,East,90,5.1,6.8,100,0.00,,,0.06,Rainwise IP-100,2013-01-12 20:08:00,
2013-01-12 15:13:00,43.0,43.0,30.16,ESE,112,4.2,6.3,100,0.00,,,0.06,Rainwise IP-100,2013-01-12 20:13:00,
2013-01-12 15:18:00,43.0,43.0,30.16,East,90,2.6,5.4,100,0.00,,,0.06,Rainwise IP-100,2013-01-12 20:18:00,
2013-01-12 15:23:00,43.0,43.0,30.16,ESE,112,2.8,4.4,100,0.00,,,0.06,Rainwise IP-100,2013-01-12 20:23:00,
2013-01-12 15:28:00,43.1,43.0,30.16,ESE,112,4.4,5.1,100,0.00,,,0.06,Rainwise IP-100,2013-01-12 20:28:00,
2013-01-12 15:33:00,43.1,43.0,30.16,East,90,5.8,6.8,100,0.00,,,0.06,Rainwise IP-100,2013-01-12 20:33:00,
2013-01-12 15:38:00,43.1,43.0,30.15,East,90,5.4,7.7,100,0.00,,,0.06,Rainwise IP-100,2013-01-12 20:38:00,
2013-01-12 15:44:00,43.1,43.0,30.15,ENE,67,4.9,7.9,100,0.00,,,0.06,Rainwise IP-100,2013-01-12 20:44:00,
2013-01-12 15:49:00,43.0,43.0,30.15,East,90,4.0,7.7,100,0.00,,,0.06,Rainwise IP-100,2013-01-12 20:49:00,
2013-01-12 15:54:00,43.0,43.0,30.16,East,90,3.3,6.8,100,0.00,,,0.06,Rainwise IP-100,2013-01-12 20:54:00,
2013-01-12 15:59:00,43.1,43.0,30.16,East,90,2.8,4.9,100,0.00,,,0.06,Rainwise IP-100,2013-01-12 20:59:00,
2013-01-12 16:04:00,43.1,43.0,30.16,ESE,112,2.6,4.0,100,0.00,,,0.06,Rainwise IP-100,2013-01-12 21:04:00,
2013-01-12 16:09:00,43.1,43.0,30.15,East,90,2.8,4.0,100,0.00,,,0.06,Rainwise IP-100,2013-01-12 21:09:00,
2013-01-12 16:14:00,43.0,43.0,30.16,ESE,112,2.6,4.2,100,0.00,,,0.06,Rainwise IP-100,2013-01-12 21:14:00,
2013-01-12 16:20:00,43.0,43.0,30.16,ESE,112,2.3,3.3,100,0.00,,,0.06,Rainwise IP-100,2013-01-12 21:20:00,
2013-01-12 16:25:00,43.0,43.0,30.16,East,90,4.0,4.4,100,0.00,,,0.06,Rainwise IP-100,2013-01-12 21:25:00,
2013-01-12 16:30:00,43.0,43.0,30.16,East,90,3.0,5.1,100,0.00,,,0.06,Rainwise IP-100,2013-01-12 21:30:00,
2013-01-12 16:35:00,42.9,43.0,30.16,East,90,2.3,4.2,100,0.00,,,0.06,Rainwise IP-100,2013-01-12 21:35:00,
2013-01-12 16:40:00,43.0,43.0,30.16,East,90,1.2,3.3,100,0.00,,,0.06,Rainwise IP-100,2013-01-12 21:40:00,
2013-01-12 16:45:00,43.1,43.0,30.17,ENE,67,2.6,4.0,100,0.00,,,0.06,Rainwise IP-100,2013-01-12 21:45:00,
2013-01-12 16:50:00,43.2,43.0,30.17,ESE,112,3.0,4.0,100,0.00,,,0.06,Rainwise IP-100,2013-01-12 21:50:00,
2013-01-12 16:55:00,43.2,43.0,30.16,ESE,112,3.7,4.0,100,0.00,,,0.06,Rainwise IP-100,2013-01-12 21:55:00,
2013-01-12 17:01:00,43.2,43.0,30.16,ESE,112,3.5,4.4,100,0.00,,,0.06,Rainwise IP-100,2013-01-12 22:01:00,
2013-01-12 17:06:00,43.2,43.0,30.17,ENE,67,2.6,5.1,100,0.00,,,0.06,Rainwise IP-100,2013-01-12 22:06:00,
2013-01-12 17:11:00,43.3,43.0,30.17,East,90,2.3,4.2,100,0.00,,,0.06,Rainwise IP-100,2013-01-12 22:11:00,
2013-01-12 17:16:00,43.4,43.0,30.18,East,90,0.0,3.0,100,0.00,,,0.06,Rainwise IP-100,2013-01-12 22:16:00,
2013-01-12 17:21:00,43.4,43.0,30.18,NNE,22,0.0,2.3,100,0.00,,,0.06,Rainwise IP-100,2013-01-12 22:21:00,
2013-01-12 17:26:00,43.5,44.0,30.19,ENE,67,2.3,2.8,100,0.00,,,0.06,Rainwise IP-100,2013-01-12 22:26:00,
2013-01-12 17:31:00,43.6,44.0,30.19,ENE,67,0.0,3.3,100,0.00,,,0.06,Rainwise IP-100,2013-01-12 22:31:00,
2013-01-12 17:37:00,43.7,44.0,30.18,ENE,67,0.0,1.4,100,0.00,,,0.06,Rainwise IP-100,2013-01-12 22:37:00,
2013-01-12 17:42:00,43.6,44.0,30.18,ENE,67,0.0,0.0,100,0.00,,,0.06,Rainwise IP-100,2013-01-12 22:42:00,
2013-01-12 17:47:00,43.5,44.0,30.19,ENE,67,0.0,0.0,100,0.00,,,0.06,Rainwise IP-100,2013-01-12 22:47:00,
2013-01-12 17:52:00,43.5,44.0,30.19,ENE,67,0.0,0.0,100,0.00,,,0.06,Rainwise IP-100,2013-01-12 22:52:00,
2013-01-12 17:57:00,43.5,44.0,30.19,ENE,67,0.0,0.0,100,0.00,,,0.06,Rainwise IP-100,2013-01-12 22:57:00,
2013-01-12 18:02:00,43.4,43.0,30.19,ENE,67,0.0,0.0,100,0.00,,,0.06,Rainwise IP-100,2013-01-12 23:02:00,
2013-01-12 18:07:00,43.4,43.0,30.19,ENE,67,0.0,0.0,100,0.00,,,0.06,Rainwise IP-100,2013-01-12 23:07:00,
2013-01-12 18:12:00,43.4,43.0,30.19,SE,135,2.3,2.6,100,0.00,,,0.06,Rainwise IP-100,2013-01-12 23:12:00,
2013-01-12 18:18:00,43.1,43.0,30.18,SSE,157,3.7,4.2,100,0.00,,,0.06,Rainwise IP-100,2013-01-12 23:18:00,
2013-01-12 18:23:00,42.8,43.0,30.18,SE,135,2.8,4.0,100,0.00,,,0.06,Rainwise IP-100,2013-01-12 23:23:00,
2013-01-12 18:28:00,42.9,43.0,30.18,ESE,112,4.0,4.9,100,0.00,,,0.06,Rainwise IP-100,2013-01-12 23:28:00,
2013-01-12 18:33:00,43.2,43.0,30.17,ESE,112,4.9,6.5,100,0.00,,,0.06,Rainwise IP-100,2013-01-12 23:33:00,
2013-01-12 18:38:00,43.3,43.0,30.17,ESE,112,3.3,5.4,100,0.00,,,0.06,Rainwise IP-100,2013-01-12 23:38:00,
2013-01-12 18:43:00,43.2,43.0,30.17,ESE,112,3.0,4.9,100,0.00,,,0.06,Rainwise IP-100,2013-01-12 23:43:00,
2013-01-12 18:48:00,43.1,43.0,30.16,ESE,112,5.6,6.8,100,0.00,,,0.06,Rainwise IP-100,2013-01-12 23:48:00,
2013-01-12 18:54:00,43.1,43.0,30.16,ESE,112,1.2,7.5,100,0.00,,,0.06,Rainwise IP-100,2013-01-12 23:54:00,
2013-01-12 18:59:00,43.1,43.0,30.16,ESE,112,0.0,3.0,100,0.00,,,0.06,Rainwise IP-100,2013-01-12 23:59:00,
2013-01-12 19:04:00,43.2,43.0,30.16,ESE,112,1.9,3.5,100,0.00,,,0.06,Rainwise IP-100,2013-01-13 00:04:00,
2013-01-12 19:09:00,43.1,43.0,30.16,ESE,112,2.8,3.7,100,0.00,,,0.06,Rainwise IP-100,2013-01-13 00:09:00,
2013-01-12 19:14:00,42.9,43.0,30.16,SSE,157,1.2,3.3,100,0.00,,,0.06,Rainwise IP-100,2013-01-13 00:14:00,
2013-01-12 19:19:00,42.8,43.0,30.16,ESE,112,2.8,2.8,100,0.00,,,0.06,Rainwise IP-100,2013-01-13 00:19:00,
2013-01-12 19:24:00,42.8,43.0,30.15,ESE,112,0.0,3.0,100,0.00,,,0.06,Rainwise IP-100,2013-01-13 00:24:00,
2013-01-12 19:29:00,42.8,43.0,30.17,SSE,157,0.0,0.0,100,0.00,,,0.06,Rainwise IP-100,2013-01-13 00:29:00,
2013-01-12 19:35:00,42.9,43.0,30.17,SSE,157,0.0,0.0,100,0.00,,,0.06,Rainwise IP-100,2013-01-13 00:35:00,
2013-01-12 19:40:00,43.0,43.0,30.17,SSE,157,0.0,0.0,100,0.00,,,0.06,Rainwise IP-100,2013-01-13 00:40:00,
2013-01-12 19:45:00,43.1,43.0,30.18,SSE,157,0.0,0.0,100,0.00,,,0.06,Rainwise IP-100,2013-01-13 00:45:00,
2013-01-12 19:50:00,43.2,43.0,30.18,ESE,112,0.0,0.0,100,0.00,,,0.06,Rainwise IP-100,2013-01-13 00:50:00,
2013-01-12 19:55:00,43.2,43.0,30.18,NNW,337,0.0,3.3,100,0.00,,,0.06,Rainwise IP-100,2013-01-13 00:55:00,
2013-01-12 20:00:00,43.2,43.0,30.17,ENE,67,2.3,3.0,100,0.00,,,0.06,Rainwise IP-100,2013-01-13 01:00:00,
2013-01-12 20:05:00,43.3,43.0,30.17,East,90,0.0,2.8,100,0.00,,,0.06,Rainwise IP-100,2013-01-13 01:05:00,
2013-01-12 20:11:00,43.2,43.0,30.16,ESE,112,4.4,4.4,100,0.00,,,0.06,Rainwise IP-100,2013-01-13 01:11:00,
2013-01-12 20:16:00,43.1,43.0,30.16,ESE,112,3.7,4.9,100,0.00,,,0.06,Rainwise IP-100,2013-01-13 01:16:00,
2013-01-12 20:21:00,43.1,43.0,30.16,SE,135,3.0,4.2,100,0.00,,,0.06,Rainwise IP-100,2013-01-13 01:21:00,
2013-01-12 20:26:00,43.0,43.0,30.17,SE,135,0.0,3.3,100,0.00,,,0.06,Rainwise IP-100,2013-01-13 01:26:00,
2013-01-12 20:31:00,42.9,43.0,30.17,WSW,247,2.1,3.3,100,0.00,,,0.06,Rainwise IP-100,2013-01-13 01:31:00,
2013-01-12 20:36:00,43.0,43.0,30.17,WSW,247,0.0,2.6,100,0.00,,,0.06,Rainwise IP-100,2013-01-13 01:36:00,
2013-01-12 20:41:00,43.0,43.0,30.17,SSW,202,3.0,3.0,100,0.00,,,0.06,Rainwise IP-100,2013-01-13 01:41:00,
2013-01-12 20:46:00,43.0,43.0,30.16,SSW,202,2.1,4.2,100,0.00,,,0.06,Rainwise IP-100,2013-01-13 01:46:00,
2013-01-12 20:52:00,43.0,43.0,30.16,SSW,202,2.6,3.5,100,0.00,,,0.06,Rainwise IP-100,2013-01-13 01:52:00,
2013-01-12 20:57:00,43.0,43.0,30.16,South,180,3.0,4.0,100,0.00,,,0.06,Rainwise IP-100,2013-01-13 01:57:00,
2013-01-12 21:02:00,43.0,43.0,30.16,South,180,4.4,4.4,100,0.00,,,0.06,Rainwise IP-100,2013-01-13 02:02:00,
2013-01-12 21:07:00,42.9,43.0,30.16,South,180,3.0,4.7,100,0.00,,,0.06,Rainwise IP-100,2013-01-13 02:07:00,
2013-01-12 21:12:00,42.9,43.0,30.16,South,180,1.6,3.3,100,0.00,,,0.06,Rainwise IP-100,2013-01-13 02:12:00,
2013-01-12 21:17:00,42.8,43.0,30.16,SE,135,1.9,3.0,100,0.00,,,0.06,Rainwise IP-100,2013-01-13 02:17:00,
2013-01-12 21:22:00,42.6,43.0,30.15,SE,135,5.4,5.4,100,0.00,,,0.06,Rainwise IP-100,2013-01-13 02:22:00,
2013-01-12 21:28:00,42.4,42.0,30.15,SE,135,3.0,5.6,100,0.00,,,0.06,Rainwise IP-100,2013-01-13 02:28:00,
2013-01-12 21:33:00,42.5,43.0,30.15,SE,135,2.6,3.3,100,0.00,,,0.06,Rainwise IP-100,2013-01-13 02:33:00,
2013-01-12 21:38:00,42.4,42.0,30.16,SE,135,3.0,3.3,100,0.00,,,0.06,Rainwise IP-100,2013-01-13 02:38:00,
2013-01-12 21:43:00,42.3,42.0,30.16,SSE,157,2.6,3.5,100,0.00,,,0.06,Rainwise IP-100,2013-01-13 02:43:00,
2013-01-12 21:48:00,42.3,42.0,30.15,SSE,157,1.4,4.2,100,0.00,,,0.06,Rainwise IP-100,2013-01-13 02:48:00,
2013-01-12 21:53:00,42.4,42.0,30.15,SSE,157,3.3,3.7,100,0.00,,,0.06,Rainwise IP-100,2013-01-13 02:53:00,
2013-01-12 21:58:00,42.4,42.0,30.14,ESE,112,3.7,3.7,100,0.00,,,0.06,Rainwise IP-100,2013-01-13 02:58:00,
2013-01-12 22:03:00,42.3,42.0,30.15,ESE,112,4.0,4.7,100,0.00,,,0.06,Rainwise IP-100,2013-01-13 03:03:00,
2013-01-12 22:09:00,42.3,42.0,30.15,ESE,112,2.8,4.4,100,0.00,,,0.06,Rainwise IP-100,2013-01-13 03:09:00,
2013-01-12 22:14:00,42.2,42.0,30.15,ESE,112,2.6,3.3,100,0.00,,,0.06,Rainwise IP-100,2013-01-13 03:14:00,
2013-01-12 22:19:00,42.1,42.0,30.15,ESE,112,4.4,4.4,100,0.00,,,0.06,Rainwise IP-100,2013-01-13 03:19:00,
2013-01-12 22:24:00,42.1,42.0,30.15,ESE,112,3.7,4.9,100,0.00,,,0.06,Rainwise IP-100,2013-01-13 03:24:00,
2013-01-12 22:29:00,42.1,42.0,30.16,ESE,112,1.9,4.2,100,0.00,,,0.06,Rainwise IP-100,2013-01-13 03:29:00,
2013-01-12 22:34:00,42.0,42.0,30.15,ESE,112,2.1,2.8,100,0.00,,,0.06,Rainwise IP-100,2013-01-13 03:34:00,
2013-01-12 22:39:00,42.0,42.0,30.15,ESE,112,2.8,3.5,100,0.00,,,0.06,Rainwise IP-100,2013-01-13 03:39:00,
2013-01-12 22:45:00,42.0,42.0,30.15,ESE,112,1.4,3.0,100,0.00,,,0.06,Rainwise IP-100,2013-01-13 03:45:00,
2013-01-12 22:50:00,42.0,42.0,30.15,ESE,112,1.6,2.6,100,0.00,,,0.06,Rainwise IP-100,2013-01-13 03:50:00,
2013-01-12 22:55:00,41.9,42.0,30.15,ESE,112,2.1,2.8,100,0.00,,,0.06,Rainwise IP-100,2013-01-13 03:55:00,
2013-01-12 23:00:00,41.9,42.0,30.15,ESE,112,1.4,2.1,100,0.00,,,0.06,Rainwise IP-100,2013-01-13 04:00:00,
2013-01-12 23:05:00,41.9,42.0,30.15,ESE,112,0.0,1.9,100,0.00,,,0.06,Rainwise IP-100,2013-01-13 04:05:00,
2013-01-12 23:10:00,41.9,42.0,30.15,ESE,112,3.0,3.0,100,0.00,,,0.06,Rainwise IP-100,2013-01-13 04:10:00,
2013-01-12 23:15:00,41.9,42.0,30.15,ESE,112,2.1,3.5,100,0.00,,,0.06,Rainwise IP-100,2013-01-13 04:15:00,
2013-01-12 23:20:00,41.8,42.0,30.15,ESE,112,0.0,3.0,100,0.00,,,0.06,Rainwise IP-100,2013-01-13 04:20:00,
2013-01-12 23:26:00,41.8,42.0,30.15,ESE,112,0.0,1.2,100,0.00,,,0.06,Rainwise IP-100,2013-01-13 04:26:00,
2013-01-12 23:31:00,41.8,42.0,30.15,ESE,112,0.0,0.0,100,0.00,,,0.06,Rainwise IP-100,2013-01-13 04:31:00,
2013-01-12 23:36:00,41.8,42.0,30.15,ESE,112,1.4,1.6,100,0.00,,,0.06,Rainwise IP-100,2013-01-13 04:36:00,
2013-01-12 23:41:00,41.9,42.0,30.15,SSE,157,3.3,3.5,100,0.00,,,0.06,Rainwise IP-100,2013-01-13 04:41:00,
2013-01-12 23:46:00,41.9,42.0,30.16,SSW,202,2.6,3.5,100,0.00,,,0.06,Rainwise IP-100,2013-01-13 04:46:00,
2013-01-12 23:51:00,41.9,42.0,30.16,WSW,247,1.2,3.7,100,0.00,,,0.06,Rainwise IP-100,2013-01-13 04:51:00,
2013-01-12 23:56:00,41.9,42.0,30.16,SSW,202,3.3,4.4,100,0.00,,,0.06,Rainwise IP-100,2013-01-13 04:56:00,